Location: Avebury
(53.1487°N, 106.9774°W)
Time: 12:24:12
(UTC+00:00)

Envisat - Pass Details

Date: 18 January 2022
Orbit: 764 x 765 km, 98.2° (Epoch: 22 May)

Event Time Altitude Azimuth Distance (km) Brightness Sun altitude
Rises 10:54:19 0° 24° (NNE) 3,244 6.7 -37.6°
Reaches altitude 10° 10:57:13 10° 41° (NE) 2,312 6.0 -37.2°
Maximum altitude 11:00:58 20° 89° (E) 1,700 5.3 -36.7°
Drops below altitude 10° 11:04:42 10° 136° (SE) 2,299 5.7 -36.1°
Sets 11:07:35 0° 153° (SSE) 3,220 6.4 -35.7°
